Bangkok (Don Mueang), Thailand

12:38 PM +07 on September 21, 2017 (GMT +0700)
Bangkok International

Weather History for VTBD - November, 2012

Change the Weather History Date:

Tuesday, November 13, 2012

  Actual Average Record
Temperature  
Mean Temperature 86 °F -  
Max Temperature 94 °F 87 °F 95 °F (1996)
Min Temperature 77 °F 73 °F 69 °F (2008)
Cooling Degree Days 20    
Growing Degree Days 36 (Base 50)    
Moisture  
Dew Point 75 °F    
Average Humidity 74    
Maximum Humidity 89    
Minimum Humidity 49    
Precipitation  
Precipitation 0.00 in 0.04 in - ()
Sea Level Pressure  
Sea Level Pressure 29.85 in    
Wind  
Wind Speed 5 mph ()    
Max Wind Speed 12 mph    
Max Gust Speed -    
Visibility 5.4 miles    
Events      
Averages and records for this station are not official NWS values.
T = Trace of Precipitation, MM = Missing Value Source: Averaged Metar Reports

Daily Weather History Graph

Daily Weather History Graph

Search for Another Location

Airport or City:

Trip Planner

Search our weather history database for the weather conditions in past years. The results will help you decide how hot, cold, wet, or windy it might be!

Date:

Astronomy

Nov. 13, 2012 Rise Set
Actual Time 6:16 AM +07 5:46 PM +07
Civil Twilight 5:54 AM +07 6:09 PM +07
Nautical Twilight 5:28 AM +07 6:35 PM +07
Astronomical Twilight 5:02 AM +07 7:00 PM +07
Moon 5:20 AM +07 (11/13) 5:13 PM +07 (11/13)
Length of Visible Light 12h 14m
Length of Day
11h 30m
Waning Crescent, 1% of the Moon is Illuminated
Nov 13
Waning Crescent
Nov 14
New
Nov 20
First Quarter
Nov 28
Full
Dec 6
Last Quarter

Hourly Weather History & Observations

Time (+07) Temp. Heat Index Dew Point Humidity Pressure Visibility Wind Dir Wind Speed Gust Speed Precip Events Conditions
12:00 AM 78.8 °F - 75.2 °F 89% 29.89 in 5.6 mi NNW 3.5 mph - N/A   Mostly Cloudy
12:30 AM 78.8 °F - 75.2 °F 89% 29.89 in 5.0 mi NW 5.8 mph - N/A   Mostly Cloudy
1:00 AM 79 °F - 75 °F 83% 29.91 in 5 mi NNW 3.5 mph - -   Mist
1:00 AM 78.8 °F - 75.2 °F 89% 29.89 in 5.0 mi NNW 3.5 mph - N/A   Mostly Cloudy
1:30 AM 78.8 °F - 75.2 °F 89% 29.89 in 5.0 mi NW 3.5 mph - N/A   Mostly Cloudy
2:00 AM 78.8 °F - 75.2 °F 89% 29.89 in 5.0 mi NW 4.6 mph - N/A   Mostly Cloudy
2:30 AM 78.8 °F - 75.2 °F 89% 29.86 in 4.3 mi West 5.8 mph - N/A   Mostly Cloudy
3:00 AM 78.8 °F - 75.2 °F 89% 29.86 in 4.3 mi West 5.8 mph - N/A   Mostly Cloudy
3:30 AM 78.8 °F - 73.4 °F 83% 29.86 in 4.3 mi NNW 5.8 mph - N/A   Mostly Cloudy
4:00 AM 78.8 °F - 73.4 °F 83% 29.86 in 4.3 mi West 3.5 mph - N/A   Mostly Cloudy
4:30 AM 77.0 °F - 73.4 °F 89% 29.86 in 4.3 mi NNW 5.8 mph - N/A   Mostly Cloudy
5:00 AM 77.0 °F - 73.4 °F 89% 29.86 in 3.7 mi NNW 4.6 mph - N/A   Mostly Cloudy
5:30 AM 77.0 °F - 73.4 °F 89% 29.86 in 3.7 mi North 5.8 mph - N/A   Mostly Cloudy
6:00 AM 78.8 °F - 73.4 °F 83% 29.86 in 3.7 mi North 5.8 mph - N/A   Mostly Cloudy
6:30 AM 78.8 °F - 73.4 °F 83% 29.86 in 3.1 mi North 6.9 mph - N/A   Mostly Cloudy
7:00 AM 79 °F - 74 °F 81% 29.89 in 3 mi North 9.2 mph - -   Mist
7:00 AM 78.8 °F - 73.4 °F 83% 29.89 in 3.1 mi North 9.2 mph - N/A   Mostly Cloudy
7:30 AM 78.8 °F - 73.4 °F 83% 29.89 in 3.7 mi North 10.4 mph - N/A   Mostly Cloudy
8:00 AM 80.6 °F 86.2 °F 75.2 °F 84% 29.92 in 4.3 mi North 9.2 mph - N/A   Mostly Cloudy
8:30 AM 82.4 °F 89.5 °F 75.2 °F 79% 29.92 in 5.0 mi North 9.2 mph - N/A   Mostly Cloudy
9:00 AM 82.4 °F 89.5 °F 75.2 °F 79% 29.92 in 5.6 mi NNE 9.2 mph - N/A   Mostly Cloudy
9:30 AM 84.2 °F 92.3 °F 75.2 °F 74% 29.92 in 5.6 mi NNE 5.8 mph - N/A   Mostly Cloudy
10:00 AM 86.0 °F 95.1 °F 75.2 °F 70% 29.92 in 6.2 mi NNE 6.9 mph - N/A   Mostly Cloudy
10:30 AM 87.8 °F 97.6 °F 75.2 °F 66% 29.89 in 6.2 mi NNE 8.1 mph - N/A   Mostly Cloudy
11:00 AM 87.8 °F 97.6 °F 75.2 °F 66% 29.89 in 6.2 mi East 6.9 mph - N/A   Mostly Cloudy
11:30 AM 89.6 °F 99.8 °F 75.2 °F 62% 29.86 in 6.2 mi East 6.9 mph - N/A   Mostly Cloudy
12:00 PM 91.4 °F 102.5 °F 75.2 °F 59% 29.86 in 6.2 mi East 6.9 mph - N/A   Mostly Cloudy
12:30 PM 91.4 °F 102.5 °F 75.2 °F 59% 29.83 in 6.2 mi East 6.9 mph - N/A   Mostly Cloudy
1:00 PM 94 °F - 77 °F 49% 29.83 in 6 mi NNW 3.5 mph - -   Scattered Clouds
1:00 PM 93.2 °F 107.2 °F 77.0 °F 59% 29.83 in 6.2 mi NNW 3.5 mph - N/A   Mostly Cloudy
1:30 PM 93.2 °F 107.2 °F 77.0 °F 59% 29.80 in 6.2 mi NNE 6.9 mph - N/A   Mostly Cloudy
2:00 PM 93.2 °F 107.2 °F 77.0 °F 59% 29.77 in 6.2 mi NNE 5.8 mph - N/A   Mostly Cloudy
2:30 PM 93.2 °F 107.2 °F 77.0 °F 59% 29.77 in 6.2 mi North 5.8 mph - N/A   Mostly Cloudy
3:00 PM 91.4 °F 102.5 °F 75.2 °F 59% 29.77 in 6.2 mi NNE 11.5 mph - N/A   Mostly Cloudy
3:30 PM 91.4 °F 102.5 °F 75.2 °F 59% 29.77 in 6.2 mi North 8.1 mph - N/A   Mostly Cloudy
4:00 PM 91.4 °F 102.5 °F 75.2 °F 59% 29.74 in 6.2 mi NNE 10.4 mph - N/A   Mostly Cloudy
4:30 PM 91.4 °F 102.5 °F 75.2 °F 59% 29.74 in 6.2 mi NNE 10.4 mph - N/A   Mostly Cloudy
5:00 PM 89.6 °F 99.8 °F 75.2 °F 62% 29.77 in 6.2 mi NNE 5.8 mph - N/A   Mostly Cloudy
5:30 PM 89.6 °F 99.8 °F 75.2 °F 62% 29.77 in 6.2 mi NNE 5.8 mph - N/A   Mostly Cloudy
6:00 PM 89.6 °F 99.8 °F 75.2 °F 62% 29.77 in 6.2 mi SSE 8.1 mph - N/A   Mostly Cloudy
6:30 PM 89.6 °F 99.8 °F 75.2 °F 62% 29.80 in 6.2 mi SSE 4.6 mph - N/A   Mostly Cloudy
7:00 PM 87 °F - 76 °F 64% 29.82 in 6 mi East 4.6 mph - -   Scattered Clouds
7:00 PM 87.8 °F 99.7 °F 77.0 °F 70% 29.80 in 6.2 mi East 4.6 mph - N/A   Mostly Cloudy
7:30 PM 87.8 °F 99.7 °F 77.0 °F 70% 29.83 in 6.2 mi South 3.5 mph - N/A   Mostly Cloudy
8:00 PM 86.0 °F 96.9 °F 77.0 °F 74% 29.83 in 6.2 mi South 2.3 mph - N/A   Mostly Cloudy
8:30 PM 86.0 °F 96.9 °F 77.0 °F 74% 29.83 in 6.2 mi NW 5.8 mph - N/A   Mostly Cloudy
9:00 PM 86.0 °F 96.9 °F 77.0 °F 74% 29.86 in 6.2 mi West 3.5 mph - N/A   Mostly Cloudy
9:30 PM 86.0 °F 96.9 °F 77.0 °F 74% 29.86 in 6.2 mi WNW 5.8 mph - N/A   Mostly Cloudy
10:00 PM 86.0 °F 96.9 °F 77.0 °F 74% 29.86 in 6.2 mi WNW 4.6 mph - N/A   Mostly Cloudy
10:30 PM 84.2 °F 96.1 °F 78.8 °F 84% 29.86 in 6.2 mi WSW 3.5 mph - N/A   Mostly Cloudy
11:00 PM 84.2 °F 94.1 °F 77.0 °F 79% 29.86 in 6.2 mi West 4.6 mph - N/A   Mostly Cloudy
11:30 PM 84.2 °F 96.1 °F 78.8 °F 84% 29.86 in 6.2 mi WNW 2.3 mph - N/A   Mostly Cloudy